Gunnison, CO

4:26 AM MST on January 18, 2017 (GMT -0700)
Gunnison County

Weather History for KGUC - April, 2013

Change the Weather History Date:

Sunday, April 7, 2013

  Actual Average Record
Temperature  
Mean Temperature 42 °F -  
Max Temperature 53 °F 48 °F 64 °F (2005)
Min Temperature 32 °F 21 °F 14 °F (1997)
Degree Days  
Heating Degree Days 22    
Moisture  
Dew Point 26 °F    
Average Humidity 56    
Maximum Humidity 87    
Minimum Humidity 26    
Precipitation  
Precipitation 0.01 in - - ()
Sea Level Pressure  
Sea Level Pressure 29.97 in    
Wind  
Wind Speed 7 mph (WNW)    
Max Wind Speed 24 mph    
Max Gust Speed 36 mph    
Visibility 10 miles    
Events      
Averages and records for this station are not official NWS values.
T = Trace of Precipitation, MM = Missing Value Source: NWS Daily Summary

Daily Weather History Graph

Daily Weather History Graph

Search for Another Location

Airport or City:

Trip Planner

Search our weather history database for the weather conditions in past years. The results will help you decide how hot, cold, wet, or windy it might be!

Date:

Astronomy

Apr. 07, 2013 Rise Set
Actual Time 6:42 AM MDT 7:37 PM MDT
Civil Twilight 6:16 AM MDT 8:04 PM MDT
Nautical Twilight 5:44 AM MDT 8:36 PM MDT
Astronomical Twilight 5:10 AM MDT 9:09 PM MDT
Moon 5:00 AM MDT (4/7) 5:13 PM MDT (4/7)
Length of Visible Light 13h 48m
Length of Day
12h 54m
Waning Crescent, 8% of the Moon is Illuminated
Apr 7
Waning Crescent
Apr 10
New
Apr 18
First Quarter
Apr 25
Full
May 2
Last Quarter

Hourly Weather History & Observations

Time (MDT) Temp. Windchill Dew Point Humidity Pressure Visibility Wind Dir Wind Speed Gust Speed Precip Events Conditions
12:15 AM 39.2 °F 35.0 °F 28.4 °F 65% 30.08 in 10.0 mi SW 5.8 mph - N/A   Overcast
12:35 AM 39.2 °F 35.9 °F 28.4 °F 65% 30.09 in 10.0 mi WNW 4.6 mph - N/A   Overcast
12:55 AM 39.2 °F 34.2 °F 28.4 °F 65% 30.08 in 10.0 mi North 6.9 mph - N/A   Overcast
1:15 AM 37.4 °F 31.4 °F 30.2 °F 75% 30.09 in 10.0 mi NNW 8.1 mph - N/A   Overcast
1:35 AM 35.6 °F - 30.2 °F 81% 30.07 in 8.0 mi Calm Calm - 0.01 in   Overcast
1:55 AM 35.6 °F - 30.2 °F 81% 30.07 in 10.0 mi Calm Calm - 0.01 in   Partly Cloudy
2:15 AM 35.6 °F 32.8 °F 30.2 °F 81% 30.06 in 10.0 mi South 3.5 mph - N/A   Mostly Cloudy
2:35 AM 35.6 °F - 30.2 °F 81% 30.06 in 10.0 mi Calm Calm - N/A   Overcast
2:55 AM 35.6 °F - 32.0 °F 87% 30.05 in 10.0 mi Calm Calm - N/A   Overcast
3:15 AM 37.4 °F 34.9 °F 30.2 °F 75% 30.05 in 10.0 mi WSW 3.5 mph - N/A   Overcast
3:35 AM 35.6 °F - 30.2 °F 81% 30.04 in 10.0 mi Calm Calm - N/A   Overcast
4:15 AM 35.6 °F 29.9 °F 30.2 °F 81% 30.03 in 10.0 mi NNW 6.9 mph - N/A   Overcast
4:35 AM 35.6 °F 29.9 °F 30.2 °F 81% 30.03 in 10.0 mi NNW 6.9 mph - N/A   Overcast
4:55 AM 35.6 °F 29.9 °F 30.2 °F 81% 30.02 in 10.0 mi NNW 6.9 mph - N/A   Overcast
5:35 AM 35.6 °F 31.7 °F 28.4 °F 75% 30.03 in 10.0 mi NNW 4.6 mph - N/A   Overcast
5:55 AM 33.8 °F 29.6 °F 28.4 °F 81% 30.02 in 10.0 mi NNW 4.6 mph - N/A   Mostly Cloudy
6:35 AM 33.8 °F 30.8 °F 28.4 °F 81% 30.03 in 10.0 mi WNW 3.5 mph - N/A   Scattered Clouds
7:15 AM 32.0 °F 28.7 °F 26.6 °F 80% 30.04 in 5.0 mi NNW 3.5 mph - N/A   Overcast
7:35 AM 32.0 °F - 26.6 °F 80% 30.04 in 10.0 mi Calm Calm - N/A   Overcast
7:55 AM 33.8 °F - 28.4 °F 81% 30.04 in 10.0 mi Calm Calm - N/A   Overcast
8:35 AM 35.6 °F - 28.4 °F 75% 30.04 in 10.0 mi Calm Calm - N/A   Overcast
8:55 AM 35.6 °F - 30.2 °F 81% 30.04 in 10.0 mi Calm Calm - N/A   Mostly Cloudy
9:15 AM 37.4 °F 33.8 °F 30.2 °F 75% 30.04 in 10.0 mi WSW 4.6 mph - N/A   Overcast
9:35 AM 37.4 °F 33.8 °F 30.2 °F 75% 30.03 in 10.0 mi SW 4.6 mph - N/A   Overcast
9:55 AM 39.2 °F - 32.0 °F 75% 30.02 in 10.0 mi Calm Calm - N/A   Overcast
10:15 AM 39.2 °F - 30.2 °F 70% 30.02 in 10.0 mi Calm Calm - N/A   Mostly Cloudy
10:35 AM 42.8 °F 41.1 °F 30.2 °F 61% 30.02 in 10.0 mi NNE 3.5 mph - N/A   Overcast
10:55 AM 42.8 °F 41.1 °F 30.2 °F 61% 30.01 in 10.0 mi North 3.5 mph - N/A   Mostly Cloudy
11:15 AM 42.8 °F - 30.2 °F 61% 30.01 in 10.0 mi Calm Calm - N/A   Overcast
11:35 AM 44.6 °F 41.4 °F 28.4 °F 53% 29.99 in 10.0 mi NE 5.8 mph - N/A   Mostly Cloudy
11:55 AM 46.4 °F 40.4 °F 26.6 °F 46% 29.99 in 10.0 mi NW 13.8 mph 17.3 mph N/A   Overcast
12:15 PM 46.4 °F 40.7 °F 26.6 °F 46% 29.99 in 10.0 mi WNW 12.7 mph 16.1 mph N/A   Overcast
12:35 PM 46.4 °F 40.1 °F 26.6 °F 46% 29.98 in 10.0 mi West 15.0 mph - N/A   Overcast
12:55 PM 50.0 °F - 26.6 °F 40% 29.96 in 10.0 mi WSW 19.6 mph 24.2 mph N/A   Mostly Cloudy
1:15 PM 51.8 °F - 24.8 °F 35% 29.95 in 10.0 mi SW 20.7 mph 28.8 mph N/A   Mostly Cloudy
1:35 PM 48.2 °F - 24.8 °F 40% 29.95 in 10.0 mi WNW 15.0 mph 19.6 mph N/A   Overcast
1:55 PM 51.8 °F - 24.8 °F 35% 29.94 in 10.0 mi West 12.7 mph 23.0 mph N/A   Scattered Clouds
2:15 PM 51.8 °F - 23.0 °F 33% 29.94 in 10.0 mi West 19.6 mph 29.9 mph N/A   Partly Cloudy
2:35 PM 50.0 °F - 23.0 °F 35% 29.93 in 10.0 mi NW 15.0 mph 34.5 mph N/A   Mostly Cloudy
2:55 PM 51.8 °F - 24.8 °F 35% 29.92 in 10.0 mi West 13.8 mph 26.5 mph N/A   Scattered Clouds
3:15 PM 51.8 °F - 21.2 °F 30% 29.92 in 10.0 mi West 11.5 mph 28.8 mph N/A   Mostly Cloudy
3:35 PM 51.8 °F - 21.2 °F 30% 29.91 in 10.0 mi WNW 21.9 mph 26.5 mph N/A   Partly Cloudy
3:55 PM 50.0 °F - 23.0 °F 35% 29.91 in 10.0 mi NW 16.1 mph 26.5 mph N/A   Scattered Clouds
4:15 PM 51.8 °F - 23.0 °F 33% 29.90 in 10.0 mi West 15.0 mph 26.5 mph N/A   Partly Cloudy
4:35 PM 51.8 °F - 23.0 °F 33% 29.89 in 10.0 mi WNW 12.7 mph 17.3 mph N/A   Partly Cloudy
4:55 PM 53.6 °F - 21.2 °F 28% 29.88 in 10.0 mi WSW 9.2 mph 26.5 mph N/A   Partly Cloudy
5:15 PM 53.6 °F - 19.4 °F 26% 29.88 in 10.0 mi SW 10.4 mph 19.6 mph N/A   Mostly Cloudy
5:35 PM 51.8 °F - 21.2 °F 30% 29.89 in 10.0 mi SSW 23.0 mph 35.7 mph N/A   Overcast
5:55 PM 48.2 °F - 23.0 °F 37% 29.88 in 10.0 mi SW 13.8 mph 23.0 mph N/A   Scattered Clouds
6:15 PM 50.0 °F - 21.2 °F 32% 29.89 in 10.0 mi WSW 11.5 mph - N/A   Mostly Cloudy
6:35 PM 50.0 °F - 19.4 °F 30% 29.89 in 10.0 mi SSW 24.2 mph 29.9 mph N/A   Mostly Cloudy
6:55 PM 48.2 °F - 19.4 °F 32% 29.89 in 10.0 mi SW 12.7 mph 20.7 mph N/A   Overcast
7:15 PM 48.2 °F - 19.4 °F 32% 29.89 in 10.0 mi SW 11.5 mph - N/A   Mostly Cloudy
7:35 PM 48.2 °F - 19.4 °F 32% 29.89 in 10.0 mi SSW 8.1 mph - N/A   Clear
7:55 PM 46.4 °F 41.9 °F 21.2 °F 37% 29.89 in 10.0 mi South 9.2 mph - N/A   Clear
8:15 PM 46.4 °F 41.9 °F 21.2 °F 37% 29.88 in 10.0 mi SSW 9.2 mph - N/A   Clear
8:55 PM 44.6 °F - 21.2 °F 39% 29.89 in 10.0 mi Calm Calm - N/A   Partly Cloudy
9:15 PM 42.8 °F 40.1 °F 23.0 °F 46% 29.88 in 10.0 mi ESE 4.6 mph - N/A   Partly Cloudy
9:35 PM 42.8 °F 36.2 °F 23.0 °F 46% 29.90 in 10.0 mi West 12.7 mph 18.4 mph N/A   Mostly Cloudy
10:15 PM 46.4 °F 40.7 °F 21.2 °F 37% 29.94 in 10.0 mi West 12.7 mph 23.0 mph N/A   Mostly Cloudy
10:35 PM 42.8 °F 41.1 °F 24.8 °F 49% 29.91 in 10.0 mi North 3.5 mph - N/A   Scattered Clouds
10:55 PM 41.0 °F 34.7 °F 26.6 °F 57% 29.90 in 10.0 mi North 10.4 mph - N/A   Clear
11:15 PM 39.2 °F 32.5 °F 26.6 °F 61% 29.90 in 10.0 mi North 10.4 mph - N/A   Partly Cloudy
11:35 PM 39.2 °F 31.6 °F 28.4 °F 65% 29.90 in 10.0 mi North 12.7 mph - N/A   Mostly Cloudy
11:55 PM 39.2 °F 34.2 °F 28.4 °F 65% 29.90 in 10.0 mi ENE 6.9 mph - N/A   Mostly Cloudy